1309824033759,109.098
1309824093759,109.037
1309824153759,109.392
1309824213759,109.159
1309824273759,109.221
1309824333759,108.756
1309824393759,109.010
1309824453759,108.974
1309824513759,108.969
1309824573759,109.007
1309824633759,109.035
1309824693759,108.998
1309824753759,108.668
1309824813759,109.005
1309824873759,109.019
1309824933759,109.199
1309824993759,109.037
1309825053759,108.932
1309825113759,108.833
1309825173759,108.763
1309825233759,108.832
1309825293759,109.131
1309825353759,109.111
1309825413759,108.959
1309825473759,109.037
1309825533759,108.985
1309825593759,109.057
1309825653759,108.760
1309825713759,109.136
1309825773759,109.089
1309825833759,108.977
1309825893759,108.773
1309825953759,109.044
1309826013759,108.899
1309826073759,108.981
1309826133759,109.131
1309826193759,109.065
1309826253759,109.070
1309826313759,108.626
1309826373759,108.825
1309826433759,108.794
1309826493759,109.037
1309826553759,109.056
1309826613759,109.072
1309826673759,109.229
1309826733759,109.266
1309826793759,109.054
1309826853759,108.843
1309826913759,108.988
1309826973759,108.926
1309827033759,109.198
1309827093759,109.083
1309827153759,108.798
1309827213759,109.059
1309827273759,109.076
1309827333759,109.005
1309827393759,109.104
1309827453759,108.857
1309827513759,109.009
1309827573759,109.121
1309827633770,108.957
1309827693770,109.017
1309827753770,108.971
1309827813770,108.705
1309827873770,109.283
1309827933770,108.837
1309827993770,108.867
1309828053770,108.909
1309828113770,109.107
1309828173770,108.962
1309828233770,108.933
1309828293770,108.985
1309828353770,109.022
1309828413770,108.998
1309828473770,108.932
1309828533770,108.605
1309828593770,108.783
1309828653770,109.076
1309828713770,109.014
1309828773770,109.157
1309828833770,109.073
1309828893770,108.896
1309828953770,109.181
1309829013770,108.840
1309829073770,109.035
1309829133770,109.240
1309829193770,109.068
1309829253770,109.093
1309829313770,109.095
1309829373770,109.116
1309829433770,108.842
1309829493770,108.849
1309829553770,108.770
1309829613770,109.074
1309829673770,108.885
1309829733770,109.030
1309829793770,108.917
1309829853770,108.905
1309829913770,108.736
1309829973770,108.644
1309830033770,109.126
1309830093770,108.910
1309830153770,108.984
1309830213770,108.873
1309830273770,108.825
1309830333770,108.849
1309830393770,109.057
1309830453770,108.983
1309830513770,108.874
1309830573770,108.742
1309830633770,109.040
1309830693770,108.644
1309830753770,108.962
1309830813770,108.985
1309830873770,108.969
1309830933770,109.026
1309830993770,108.954
1309831053770,109.117
1309831113770,109.032
1309831173770,108.881
1309831233780,108.833
1309831293780,109.039
1309831353780,109.115
1309831413780,109.038
1309831473780,108.823
1309831533780,109.011
1309831593780,109.032
1309831653780,109.157
1309831713780,109.209
1309831773780,109.117
1309831833779,108.820
1309831893779,109.202
1309831953780,109.213
1309832013780,109.074
1309832073780,109.074
1309832133780,109.188
1309832193780,109.069
1309832253780,109.054
1309832313780,109.211
1309832373780,109.122
1309832433780,108.970
1309832493780,108.934
1309832553780,109.215
1309832613780,108.880
1309832673780,109.464
1309832733780,108.816
1309832793780,109.121
1309832853780,109.001
1309832913780,109.135
1309832973780,108.797
1309833033780,109.058
1309833093780,108.964
1309833153780,108.808
1309833213779,108.818
1309833273779,108.960
1309833333780,109.258
1309833393780,108.986
1309833453780,109.374
1309833513780,108.959
1309833573780,108.995
1309833633780,109.064
1309833693780,108.990
1309833753780,108.829
1309833813780,108.904
1309833873780,109.042
1309833933780,109.455
1309833993780,109.041
1309834053780,108.882
1309834113780,109.030
1309834173780,108.961
1309834233780,109.235
1309834293780,109.100
1309834353780,109.163
1309834413780,109.291
1309834473780,108.672
1309834533779,109.164
1309834593779,108.995
1309834653780,109.057
1309834713780,108.777
1309834773780,109.093
1309834833789,108.830
1309834893789,108.870
1309834953789,108.786
1309835013789,108.791
1309835073789,108.819
1309835133789,108.803
1309835193789,109.023
1309835253789,108.943
1309835313789,108.885
1309835373789,108.718
1309835433789,108.976
1309835493789,108.973
1309835553789,108.818
1309835613789,108.622
1309835673789,108.814
1309835733789,108.583
1309835793789,108.890
1309835853789,108.749
1309835913789,108.798
1309835973789,108.670
1309836033789,108.985
1309836093789,108.864
1309836153789,108.642
1309836213789,108.636
1309836273789,108.732
1309836333789,108.849
1309836393789,108.695
1309836453789,108.620
1309836513789,108.832
1309836573789,108.673
1309836633789,109.067
1309836693789,108.733
1309836753789,108.720
1309836813789,108.706
1309836873789,108.762
1309836933789,108.676
1309836993789,108.743
1309837053789,108.750
1309837113789,108.705
1309837173789,108.908
1309837233789,108.701
1309837293789,109.048
1309837353789,108.716
1309837413789,108.534
1309837473789,108.843
1309837533789,108.751
1309837593789,108.616
1309837653789,108.490
1309837713789,108.630
1309837773789,108.692
1309837833789,108.455
1309837893789,108.637
1309837953789,108.785
1309838013789,108.585
1309838073789,108.555
1309838133789,108.688
1309838193789,108.708
1309838253789,108.754
1309838313789,108.518
1309838373789,108.612
1309838433799,108.554
1309838493799,108.699
1309838553799,108.705
1309838613799,108.459
1309838673799,108.578
1309838733799,108.541
1309838793799,108.824
1309838853799,108.587
1309838913799,108.632
1309838973799,108.695
1309839033799,108.395
1309839093799,108.541
1309839153799,108.722
1309839213799,108.684
1309839273799,108.578
1309839333799,108.526
1309839393799,108.409
1309839453799,108.581
1309839513799,108.385
1309839573799,108.234
1309839633799,108.445
1309839693799,108.111
1309839753799,108.512
1309839813799,108.412
1309839873799,108.603
1309839933799,108.428
1309839993799,108.693
1309840053799,108.340
1309840113799,108.269
1309840173799,108.416
1309840233799,108.594
1309840293799,108.433
1309840353799,108.641
1309840413799,108.488
1309840473799,108.528
1309840533799,108.389
1309840593799,108.343
1309840653799,108.216
1309840713799,108.473
1309840773799,108.315
1309840833799,108.396
1309840893799,108.523
1309840953799,108.355
1309841013799,108.313
1309841073799,108.396
1309841133799,108.279
1309841193799,108.611
1309841253799,108.223
1309841313799,108.108
1309841373799,108.396
1309841433799,108.425
1309841493799,108.331
1309841553799,108.077
1309841613799,108.259
1309841673799,108.355
1309841733799,108.446
1309841793799,108.275
1309841853799,108.612
1309841913799,108.489
1309841973799,108.411
1309842033808,108.233
1309842093808,108.299
1309842153808,108.747
1309842213808,108.622
1309842273808,108.631
1309842333808,108.450
1309842393808,108.588
1309842453808,108.507
1309842513808,108.674
1309842573808,108.297
1309842633808,108.365
1309842693808,108.523
1309842753808,108.411
1309842813808,108.422
1309842873808,108.522
1309842933808,108.594
1309842993808,108.585
1309843053808,108.636
1309843113808,108.755
1309843173808,108.674
1309843233808,108.820
1309843293808,108.632
1309843353808,108.645
1309843413808,108.606
1309843473808,108.817
1309843533808,108.715
1309843593808,108.635
1309843653808,108.671
1309843713808,109.071
1309843773808,108.713
1309843833808,108.827
1309843893808,108.701
1309843953808,108.884
1309844013808,108.839
1309844073808,108.848
1309844133808,108.816
1309844193808,109.083
1309844253808,108.759
1309844313808,108.619
1309844373808,108.763
1309844433808,108.809
1309844493808,108.666
1309844553808,108.850
1309844613808,108.953
1309844673808,108.989
1309844733808,109.094
1309844793808,108.890
1309844853808,109.021
1309844913808,108.974
1309844973808,108.785
1309845033808,109.078
1309845093808,108.943
1309845153808,108.775
1309845213808,109.062
1309845273808,109.094
1309845333808,108.960
1309845393808,109.016
1309845453808,109.049
1309845513808,109.114
1309845573808,108.983
1309845633818,109.033
1309845693818,109.000
1309845753818,108.880
1309845813818,109.088
1309845873818,109.082
1309845933818,108.942
1309845993818,109.241
1309846053818,109.168
1309846113818,108.843
1309846173818,109.090
1309846233818,109.155
1309846293818,108.933
1309846353818,108.814
1309846413818,109.006
1309846473818,108.959
1309846533818,108.987
1309846593818,109.205
1309846653818,109.190
1309846713818,109.078
1309846773818,109.207
1309846833818,109.159
1309846893818,109.109
1309846953818,109.023
1309847013818,109.290
1309847073818,108.981
1309847133818,109.085
1309847193818,109.082
1309847253818,109.085
1309847313818,109.330
1309847373818,109.384
1309847433818,109.166
1309847493818,109.100
1309847553818,108.913
1309847613818,109.200
1309847673818,109.189
1309847733818,109.025
1309847793818,109.235
1309847853818,109.087
1309847913818,109.192
1309847973818,109.283
1309848033818,108.973
1309848093818,109.244
1309848153818,109.376
1309848213818,109.176
1309848273818,109.143
1309848333818,109.242
1309848393818,109.367
1309848453818,109.231
1309848513818,109.283
1309848573818,109.082
1309848633818,109.123
1309848693818,109.512
1309848753818,109.144
1309848813818,109.222
1309848873818,109.278
1309848933818,109.300
1309848993818,109.317
1309849053818,109.415
1309849113818,109.320
1309849173818,109.284
1309849233827,109.603
1309849293827,109.242
1309849353827,109.307
1309849413827,109.053
1309849473827,109.229
1309849533827,109.320
1309849593827,109.207
1309849653827,109.246
1309849713827,109.373
1309849773827,109.204
1309849833827,109.226
1309849893827,109.074
1309849953827,109.279
1309850013827,109.081
1309850073827,109.151
1309850133827,109.019
1309850193827,109.028
1309850253827,108.948
1309850313827,109.087
1309850373827,109.194
1309850433827,108.892
1309850493827,108.919
1309850553827,108.895
1309850613827,109.251
1309850673827,109.133
1309850733827,108.886
1309850793827,109.087
1309850853827,109.064
1309850913827,109.115
1309850973827,109.161
1309851033827,108.961
1309851093827,108.960
1309851153827,109.179
1309851213827,109.003
1309851273827,108.813
1309851333827,108.819
1309851393827,108.895
1309851453827,108.978
1309851513827,108.757
1309851573827,108.908
1309851633827,109.010
1309851693827,108.910
1309851753827,108.695
1309851813827,108.896
1309851873827,108.847
1309851933827,108.785
1309851993827,108.750
1309852053827,108.622
1309852113827,108.933
1309852173827,108.763
1309852233827,108.779
1309852293827,108.779
1309852353827,108.824
1309852413827,108.982
1309852473827,108.862
1309852533827,108.602
1309852593827,108.697
1309852653827,108.697
1309852713827,109.013
1309852773827,108.875
1309852833836,108.842
1309852893836,108.804
1309852953836,108.512
1309853013836,109.033
1309853073836,108.673
1309853133836,108.641
1309853193836,108.952
1309853253836,108.716
1309853313836,108.871
1309853373836,108.622
1309853433836,108.924
1309853493836,108.570
1309853553836,108.601
1309853613836,108.563
1309853673836,108.601
1309853733836,108.654
1309853793836,108.730
1309853853836,108.751
1309853913836,108.936
1309853973836,108.878
1309854033836,108.636
1309854093836,108.540
1309854153836,108.702
1309854213836,108.750
1309854273836,108.517
1309854333836,108.398
1309854393836,108.454
1309854453836,108.642
1309854513836,108.531
1309854573836,108.453
1309854633836,108.536
1309854693836,108.680
1309854753836,108.776
1309854813836,108.337
1309854873836,108.479
1309854933836,108.448
1309854993836,108.535
1309855053836,108.507
1309855113836,108.355
1309855173836,108.771
1309855233836,108.605
1309855293836,108.542
1309855353836,108.369
1309855413836,108.778
1309855473836,108.583
1309855533836,108.399
1309855593836,108.965
1309855653836,108.602
1309855713836,108.916
1309855773836,108.714
1309855833836,108.620
1309855893836,108.777
1309855953836,108.609
1309856013836,108.747
1309856073836,108.651
1309856133836,108.672
1309856193836,108.688
1309856253836,108.672
1309856313836,108.569
1309856373836,108.746
1309856433845,108.603
1309856493845,108.340
1309856553845,108.386
1309856613845,108.471
1309856673845,108.398
1309856733845,108.374
1309856793845,108.365
1309856853845,108.277
1309856913845,108.733
1309856973845,108.206
1309857033845,108.522
1309857093845,108.421
1309857153845,108.465
1309857213845,108.607
1309857273845,108.329
1309857333845,108.664
1309857393845,108.446
1309857453845,108.373
1309857513845,108.761
1309857573845,108.600
1309857633845,108.485
1309857693845,108.468
1309857753845,108.429
1309857813845,108.631
1309857873845,108.491
1309857933845,108.461
1309857993845,108.439
1309858053845,108.453
1309858113845,108.232
1309858173845,108.642
1309858233845,108.425
1309858293845,108.652
1309858353845,108.549
1309858413845,108.508
1309858473845,108.614
1309858533845,108.339
1309858593845,108.400
1309858653845,108.358
1309858713845,108.532
1309858773845,108.511
1309858833845,108.744
1309858893845,108.490
1309858953845,108.521
1309859013845,108.571
1309859073845,108.464
1309859133845,108.444
1309859193845,108.591
1309859253845,108.347
1309859313845,108.718
1309859373845,108.334
1309859433845,108.596
1309859493845,108.740
1309859553845,108.550
1309859613845,108.767
1309859673845,108.686
1309859733845,108.603
1309859793845,108.573
1309859853845,108.537
1309859913845,108.518
1309859973845,108.724
1309860033854,108.589
1309860093854,108.573
1309860153854,108.663
1309860213854,108.677
1309860273854,108.544
1309860333854,108.433
1309860393854,108.509
1309860453854,108.689
1309860513854,108.504
1309860573854,108.498
1309860633854,108.656
1309860693854,108.759
1309860753854,108.545
1309860813854,108.397
1309860873854,108.651
1309860933854,108.707
1309860993854,108.534
1309861053854,108.612
1309861113854,108.629
1309861173854,108.626
1309861233854,108.744
1309861293854,108.870
1309861353854,108.669
1309861413854,108.773
1309861473854,108.799
1309861533854,108.800
1309861593854,108.812
1309861653854,108.781
1309861713854,108.957
1309861773854,108.881
1309861833854,108.807
1309861893854,109.030
1309861953854,108.720
1309862013854,108.642
1309862073854,108.744
1309862133854,108.933
1309862193854,108.934
1309862253854,108.676
1309862313854,108.948
1309862373854,108.643
1309862433854,108.830
1309862493854,108.815
1309862553854,108.884
1309862613854,108.882
1309862673854,108.971
1309862733854,109.246
1309862793854,108.775
1309862853854,108.800
1309862913854,109.025
1309862973854,109.047
1309863033854,109.077
1309863093854,109.117
1309863153854,108.814
1309863213854,108.900
1309863273854,109.025
1309863333854,108.751
1309863393854,109.063
1309863453854,108.973
1309863513854,109.165
1309863573854,109.151
1309863633864,109.156
1309863693864,108.924
1309863753864,108.888
1309863813864,108.893
1309863873864,108.991
1309863933864,108.840
1309863993864,108.942
1309864053864,109.157
1309864113864,109.088
1309864173864,109.240
1309864233864,109.295
1309864293864,109.134
1309864353864,109.257
1309864413864,109.313
1309864473864,109.099
1309864533864,109.119
1309864593864,109.053
1309864653864,109.146
1309864713864,109.225
1309864773864,108.941
1309864833864,109.138
1309864893864,109.006
1309864953864,109.299
1309865013864,109.230
1309865073864,109.164
1309865133864,109.286
1309865193864,109.216
1309865253864,108.993
1309865313864,109.032
1309865373864,109.098
1309865433864,109.053
1309865493864,109.083
1309865553864,109.052
1309865613864,109.006
1309865673864,109.053
1309865733864,109.022
1309865793864,109.243
1309865853864,109.042
1309865913864,109.067
1309865973864,109.241
1309866033864,108.919
1309866093864,108.987
1309866153864,108.991
1309866213864,109.218
1309866273864,109.195
1309866333864,109.169
1309866393864,108.885
1309866453864,109.247
1309866513864,109.074
1309866573864,109.137
1309866633864,109.253
1309866693864,109.162
1309866753864,109.096
1309866813864,109.030
1309866873864,109.117
1309866933864,109.275
1309866993864,109.308
1309867053864,109.102
1309867113864,109.249
1309867173864,109.094
1309867233873,108.985
1309867293873,109.151
1309867353873,109.421
1309867413873,108.985
1309867473873,109.005
1309867533873,108.953
1309867593873,109.064
1309867653873,109.395
1309867713873,108.975
1309867773873,108.888
1309867833873,109.132
1309867893873,109.107
1309867953873,109.250
1309868013873,109.189
1309868073873,109.086
1309868133873,109.029
1309868193873,109.127
1309868253873,109.022
1309868313873,109.112
1309868373873,108.977
1309868433873,109.375
1309868493873,109.148
1309868553873,109.351
1309868613873,109.304
1309868673873,109.323
1309868733873,109.337
1309868793873,109.199
1309868853873,109.398
1309868913873,109.537
1309868973873,109.246
1309869033873,109.244
1309869093873,109.147
1309869153873,109.267
1309869213873,109.306
1309869273873,109.466
1309869333873,109.205
1309869393873,109.715
1309869453873,109.576
1309869513873,109.504
1309869573873,109.306
1309869633873,109.478
1309869693873,109.435
1309869753873,109.412
1309869813873,109.313
1309869873873,109.569
1309869933873,109.271
1309869993873,109.694
1309870053873,109.553
1309870113873,109.786
1309870173873,109.452
1309870233873,109.588
1309870293873,109.263
1309870353873,109.459
1309870413873,109.314
1309870473873,109.556
1309870533873,109.419
1309870593873,109.474
1309870653873,109.584
1309870713873,109.398
1309870773873,109.417
1309870833882,109.358
1309870893882,109.627
1309870953882,109.507
1309871013882,109.349
1309871073882,109.422
1309871133882,109.428
1309871193882,109.439
1309871253882,109.609
1309871313882,109.411
1309871373882,109.363
1309871433882,109.488
1309871493882,109.550
1309871553882,109.322
1309871613882,109.613
1309871673882,109.569
1309871733882,109.726
1309871793882,109.669
1309871853882,109.383
1309871913882,109.298
1309871973882,109.302
1309872033882,109.404
1309872093882,109.526
1309872153882,109.412
1309872213882,109.420
1309872273882,109.395
1309872333882,109.505
1309872393882,109.435
1309872453882,109.448
1309872513882,109.511
1309872573882,109.218
1309872633882,109.456
1309872693882,109.239
1309872753882,109.406
1309872813882,109.165
1309872873882,109.104
1309872933882,109.333
1309872993882,109.139
1309873053882,109.352
1309873113882,109.370
1309873173882,109.408
1309873233882,109.326
1309873293882,109.273
1309873353882,109.285
1309873413882,109.108
1309873473882,109.066
1309873533882,109.200
1309873593882,109.229
1309873653882,109.201
1309873713882,109.195
1309873773882,109.134
1309873833882,109.096
1309873893882,109.206
1309873953882,109.231
1309874013882,109.220
1309874073882,109.063
1309874133882,109.068
1309874193882,109.027
1309874253882,109.043
1309874313882,109.009
1309874373882,109.180
1309874433891,109.085
1309874493891,109.277
1309874553891,109.019
1309874613891,109.191
1309874673891,108.898
1309874733891,109.089
1309874793891,109.246
1309874853891,108.834
1309874913891,109.039
1309874973891,108.867
1309875033891,108.949
1309875093891,109.016
1309875153891,108.904
1309875213891,109.070
1309875273891,109.035
1309875333891,109.094
1309875393891,109.027
1309875453891,109.077
1309875513891,109.178
1309875573891,109.067
1309875633891,109.187
1309875693891,108.711
1309875753891,108.935
1309875813891,109.132
1309875873891,108.964
1309875933891,109.110
1309875993891,109.152
1309876053891,108.856
1309876113891,108.863
1309876173891,109.127
1309876233891,109.044
1309876293891,109.021
1309876353891,108.901
1309876413891,109.032
1309876473891,109.061
1309876533891,109.301
1309876593891,109.287
1309876653891,109.195
1309876713891,109.149
1309876773891,109.213
1309876833891,108.911
1309876893891,108.916
1309876953891,109.261
1309877013891,109.022
1309877073891,109.271
1309877133891,109.154
1309877193891,109.080
1309877253891,109.112
1309877313891,109.054
1309877373891,109.005
1309877433891,109.304
1309877493891,108.944
1309877553891,109.047
1309877613891,108.953
1309877673891,109.246
1309877733891,109.115
1309877793891,109.320
1309877853891,109.198
1309877913891,109.361
1309877973891,109.320
1309878033901,109.174
1309878093901,109.207
1309878153901,109.047
1309878213901,109.114
1309878273901,109.064
1309878333901,109.216
1309878393901,109.209
1309878453901,109.221
1309878513901,109.075
1309878573901,109.124
1309878633901,109.518
1309878693901,108.985
1309879233901,109.396
1309879293901,108.947
1309879353901,108.942
1309879413901,108.837
1309879473901,109.059
1309879533901,109.145
1309879593901,109.386
1309879653901,109.173
1309879713901,109.273
1309879773901,109.166
1309879833901,109.325
1309879893901,109.221
1309879953901,109.290
1309880013901,108.932
1309880073901,109.395
1309880133901,109.255
1309880193901,109.145
1309880253901,109.266
1309880313901,109.049
1309880373901,109.167
1309880433901,109.361
1309880493901,109.131
1309880553901,109.045
1309880613901,109.336
1309880673901,109.389
1309880733901,109.060
1309880793901,109.170
1309880853901,109.276
1309880913901,109.561
1309880973901,109.151
1309881033901,109.187
1309881093901,109.445
1309881153901,109.191
1309881213901,109.336
1309881273901,109.250
1309881333901,109.395
1309881393901,109.264
1309881453901,109.376
1309881513901,109.211
1309881573901,109.686
1309881633910,109.521
1309881693910,109.125
1309881753910,109.373
1309881813910,109.318
1309881873910,109.232
1309881933910,109.180
1309881993910,109.264
1309882053910,109.518
1309882113910,109.252
1309882173910,109.205
1309882233910,109.023
1309882293910,108.999
1309882353910,109.146
1309882413910,109.130
1309882473910,109.055
1309882533910,109.148
1309882593910,109.160
1309882653910,109.012
1309882713910,109.323
1309882773910,109.056
1309882833910,108.838
1309882893910,109.191
1309882953910,109.126
1309883013910,109.371
1309883073910,109.258
1309883133910,109.097
1309883193910,109.166
1309883253910,108.909
1309883313910,109.354
1309883373910,109.023
1309883433910,108.755
1309883493910,108.788
1309883553910,109.012
1309883613910,108.805
1309883673910,109.059
1309883733910,109.095
1309883793910,108.927
1309883853910,108.882
1309883913910,109.150
1309883973910,108.905
1309884033910,108.929
1309884093910,108.934
1309884153910,109.196
1309884213910,108.937
1309884273910,109.144
1309884333910,109.090
1309884393910,108.957
1309884453910,108.904
1309884513910,108.953
1309884573910,109.090
1309884633910,108.974
1309884693910,108.947
1309884753910,109.065
1309884813910,109.161
1309884873910,109.001
1309884933910,109.005
1309884993910,108.918
1309885053910,108.903
1309885113910,109.009
1309885173910,109.090
1309885233901,109.175
1309885293901,108.683
1309885353901,108.906
1309885413901,108.872
1309885473901,109.182
1309885533901,108.865
1309885593901,108.666
1309885653901,109.096
1309885713901,108.860
1309885773901,109.151
1309885833901,109.128
1309885893901,108.978
1309885953901,108.926
1309886013901,108.955
1309886073901,109.130
1309886133901,108.892
1309886193901,108.926
1309886253901,108.926
1309886313901,109.034
1309886373901,109.229
1309886433901,108.933
1309886493901,109.044
1309886553901,109.169
1309886613901,108.937
1309886673901,109.226
1309886733901,108.787
1309886793901,109.003
1309886853901,108.854
1309886913901,109.024
1309886973901,109.135
1309887033901,108.924
1309887093901,108.825
1309887153901,109.146
1309887213901,108.936
1309887273901,108.685
1309887333901,108.628
1309887393901,108.819
1309887453901,108.757
1309887513901,108.999
1309887573901,108.950
1309887633901,108.919
1309887693901,108.786
1309887753901,108.713
1309887813901,108.961
1309887873901,108.791
1309887933901,108.590
1309887993901,108.632
1309888053901,108.765
1309888113901,108.783
1309888173901,108.619
1309888233901,108.503
1309888293901,108.525
1309888353901,109.040
1309888413901,108.948
1309888473901,108.757
1309888533901,108.823
1309888593901,109.079
1309888653901,108.774
1309888713901,108.724
1309888773901,108.669
1309888833911,109.121
1309888893911,108.733
1309888953911,108.805
1309889013911,108.610
1309889073911,108.800
1309889133911,108.890
1309889193911,108.901
1309889253911,108.673
1309889313911,108.779
1309889373911,108.796
1309889433911,108.857
1309889493911,108.911
1309889553911,108.689
1309889613911,108.912
1309889673911,108.834
1309889733911,108.792
1309889793911,108.928
1309889853911,108.688